Location: *
(44.1392°N, 4.8079°E)
Time: 08:41:42
(UTC+00:00)

Cosmos 2298 Rocket - Pass Details

Date: 21 June 2021
Orbit: 775 x 784 km, 74.0° (Epoch: 02 August)

Event Time Altitude Azimuth Distance (km) Brightness Sun altitude
Rises 01:53:29 0° 338° (NNW) 3,278 7.8 -16.1°
Reaches altitude 10° 01:55:53 10° 337° (NNW) 2,347 7.0 -15.9°
Maximum altitude 02:01:13 80° 252° (WSW) 800 4.0 -15.3°
Drops below altitude 10° 02:06:32 10° 166° (SSE) 2,334 6.1 -14.8°
Enters shadow 02:06:41 - 165° (SSE) 2,393 6.2 -14.8°
